Simultaneous Nadir Overpasses (SNOs) Predictions

Prediction of SNOs between TERRA and METOP-C Satellite Orbit:

Table of predicted SNOs for the next 14.0 days since TLE Epoch: 8/5/2023
Index Date (TERRA) Time (TERRA) Lat,Lon (TERRA) SZA (TERRA ) Date (METOP-C) Time (METOP-C) Lat,Lon (METOP-C) SZA (METOP-C ) Distance(km) Time Diff (sec)
1 08/06/2023 04:28:42 80.68, 143.24 65.09 08/06/2023 04:27:45 80.68, 143.18 65.06 1.20 57
2 08/06/2023 05:18:03 -80.73, -48.62 114.82 08/06/2023 05:18:24 -80.73, -48.76 114.83 2.50 21
3 08/08/2023 20:39:29 80.71, -99.18 65.89 08/08/2023 20:39:22 80.71, -99.19 65.89 0.30 7
4 08/08/2023 21:28:49 -80.79, 69.29 113.97 08/08/2023 21:30:00 -80.78, 69.20 113.96 1.84 71
5 08/11/2023 12:00:56 -80.70,-149.74 113.37 08/11/2023 12:00:22 -80.69,-149.85 113.40 2.12 34
6 08/11/2023 12:50:16 80.75, 18.55 66.75 08/11/2023 12:51:00 80.74, 18.37 66.74 3.31 44
7 08/14/2023 03:22:23 80.65, 159.34 67.35 08/14/2023 03:21:22 80.65, 159.30 67.33 0.87 61
8 08/14/2023 04:11:43 -80.72, -32.22 112.52 08/14/2023 04:12:00 -80.71, -32.38 112.53 2.97 17
9 08/16/2023 19:33:08 80.71, -82.66 68.31 08/16/2023 19:32:58 80.72, -82.59 68.31 1.23 10



Historial Predications of SNOs between TERRA and METOP-C
